| time (UTC) | temp C | wind direction | speed KPH | gust KPH | rain 1hr cm | rain 24hr cm | rain mn cm | humidity % | barometer mb |
| 20260508124029 | 18 | 190 | 12.9 | 33.8 | 0.00 | 0.00 | 0.00 | 57 | 1009.0 |
| 20260508123527 | 18 | 190 | 19.3 | 33.8 | 0.00 | 0.00 | 0.00 | 56 | 1009.0 |
| 20260508123032 | 18 | 190 | 17.7 | 29.0 | 0.00 | 0.00 | 0.00 | 57 | 1009.0 |
| 20260508122518 | 18 | 207 | 8.0 | 41.8 | 0.00 | 0.00 | 0.00 | 58 | 1009.0 |
| 20260508122023 | 18 | 190 | 19.3 | 41.8 | 0.00 | 0.00 | 0.00 | 57 | 1009.2 |
| 20260508121521 | 18 | 190 | 16.1 | 30.6 | 0.00 | 0.00 | 0.00 | 57 | 1009.2 |
| 20260508121045 | 18 | 190 | 20.9 | 43.5 | 0.00 | 0.00 | 0.00 | 56 | 1009.2 |
| 20260508120017 | 18 | 190 | 17.7 | 35.4 | 0.00 | 0.00 | 0.00 | 56 | 1009.4 |
| 20260508115551 | 18 | 190 | 17.7 | 0.0 | 0.00 | 0.00 | 0.00 | 58 | 1009.3 |
| 20260508115100 | 18 | 190 | 16.1 | 35.4 | 0.00 | 0.00 | 0.00 | 58 | 1009.5 |
| 20260508114015 | 18 | 190 | 9.7 | 35.4 | 0.00 | 0.00 | 0.00 | 59 | 1009.6 |
| 20260508113533 | 18 | 190 | 17.7 | 35.4 | 0.00 | 0.00 | 0.00 | 57 | 1009.9 |
| 20260508113018 | 18 | 190 | 16.1 | 33.8 | 0.00 | 0.00 | 0.00 | 58 | 1009.6 |
| 20260508112551 | 18 | 190 | 12.9 | 32.2 | 0.00 | 0.00 | 0.00 | 60 | 1009.7 |
| 20260508112029 | 18 | 190 | 17.7 | 32.2 | 0.00 | 0.00 | 0.00 | 61 | 1009.7 |
| 20260508111512 | 18 | 190 | 12.9 | 20.9 | 0.00 | 0.00 | 0.00 | 63 | 1009.7 |
| 20260508111018 | 17 | 190 | 9.7 | 19.3 | 0.00 | 0.00 | 0.00 | 64 | 1009.7 |
| 20260508110516 | 17 | 190 | 11.3 | 19.3 | 0.00 | 0.00 | 0.00 | 66 | 1009.7 |
| 20260508110021 | 17 | 190 | 11.3 | 24.1 | 0.00 | 0.00 | 0.00 | 67 | 1009.8 |
| 20260508105530 | 17 | 190 | 12.9 | 24.1 | 0.00 | 0.00 | 0.00 | 68 | 1009.9 |
| 20260508105035 | 16 | 190 | 12.9 | 27.4 | 0.00 | 0.00 | 0.00 | 70 | 1010.0 |
| 20260508104513 | 16 | 190 | 11.3 | 27.4 | 0.00 | 0.00 | 0.00 | 70 | 1010.1 |
| 20260508104018 | 16 | 190 | 16.1 | 27.4 | 0.00 | 0.00 | 0.00 | 70 | 1010.1 |
| 20260508103525 | 16 | 190 | 17.7 | 27.4 | 0.00 | 0.00 | 0.00 | 70 | 1010.2 |
| 20260508103022 | 16 | 190 | 6.4 | 16.1 | 0.00 | 0.00 | 0.00 | 71 | 1010.2 |
| 20260508102026 | 16 | 190 | 526.3 | 526.3 | 0.00 | 0.00 | 0.00 | 72 | 1010.2 |
| 20260508101524 | 16 | 190 | 11.3 | 17.7 | 0.00 | 0.00 | 0.00 | 73 | 1010.3 |
| 20260508101022 | 16 | 190 | 9.7 | 19.3 | 0.00 | 0.00 | 0.00 | 71 | 1010.3 |
| 20260508100527 | 16 | 190 | 9.7 | 19.3 | 0.00 | 0.00 | 0.00 | 71 | 1010.2 |
| 20260508100025 | 16 | 136 | 6.4 | 19.3 | 0.00 | 0.00 | 0.00 | 71 | 1010.1 |
| 20260508095526 | 16 | 124 | 4.8 | 19.3 | 0.00 | 0.00 | 0.00 | 71 | 1010.1 |
| 20260508095024 | 16 | 190 | 6.4 | 19.3 | 0.00 | 0.00 | 0.00 | 71 | 1010.0 |
| 20260508094529 | 16 | 167 | 12.9 | 19.3 | 0.00 | 0.00 | 0.00 | 71 | 1010.1 |
| 20260508094027 | 16 | 190 | 6.4 | 17.7 | 0.00 | 0.00 | 0.00 | 71 | 1010.1 |
| 20260508093533 | 16 | 115 | 9.7 | 19.3 | 0.00 | 0.00 | 0.00 | 71 | 1010.2 |
| 20260508093010 | 16 | 226 | 11.3 | 19.3 | 0.00 | 0.00 | 0.00 | 71 | 1010.2 |
| 20260508092527 | 16 | 172 | 9.7 | 17.7 | 0.00 | 0.00 | 0.00 | 72 | 1010.3 |
| 20260508092025 | 16 | 147 | 9.7 | 14.5 | 0.00 | 0.00 | 0.00 | 72 | 1010.3 |
| 20260508091530 | 16 | 161 | 9.7 | 14.5 | 0.00 | 0.00 | 0.00 | 74 | 1010.2 |
| 20260508091015 | 16 | 110 | 3.2 | 11.3 | 0.00 | 0.00 | 0.00 | 74 | 1010.2 |
| 20260508090534 | 15 | 166 | 8.0 | 0.0 | 0.00 | 0.00 | 0.00 | 74 | 1010.2 |
| 20260508090020 | 15 | 126 | 8.0 | 12.9 | 0.00 | 0.00 | 0.00 | 75 | 1010.3 |
| 20260508085611 | 15 | 151 | 6.4 | 16.1 | 0.00 | 0.00 | 0.00 | 75 | 1010.3 |
| 20260508084513 | 15 | 190 | 8.0 | 16.1 | 0.00 | 0.00 | 0.00 | 74 | 1010.3 |
| 20260508084037 | 15 | 111 | 9.7 | 16.1 | 0.00 | 0.00 | 0.00 | 74 | 1010.4 |
| 20260508083515 | 15 | 157 | 9.7 | 16.1 | 0.00 | 0.00 | 0.00 | 74 | 1010.4 |
| 20260508083014 | 15 | 155 | 9.7 | 16.1 | 0.00 | 0.00 | 0.00 | 75 | 1010.3 |
| 20260508082530 | 15 | 135 | 4.8 | 16.1 | 0.00 | 0.00 | 0.00 | 75 | 1010.2 |
| 20260508082028 | 15 | 185 | 8.0 | 16.1 | 0.00 | 0.00 | 0.00 | 76 | 1010.3 |
| 20260508081532 | 15 | 126 | 9.7 | 14.5 | 0.00 | 0.00 | 0.00 | 75 | 1010.3 |
| 20260508081010 | 15 | 167 | 8.0 | 17.7 | 0.00 | 0.00 | 0.00 | 75 | 1010.3 |
| 20260508080510 | 15 | 185 | 9.7 | 17.7 | 0.00 | 0.00 | 0.00 | 74 | 1010.3 |
| 20260508080016 | 15 | 151 | 8.0 | 12.9 | 0.00 | 0.00 | 0.00 | 74 | 1010.2 |
| 20260508075525 | 15 | 206 | 4.8 | 12.9 | 0.00 | 0.00 | 0.00 | 75 | 1010.3 |
| 20260508075030 | 14 | 190 | 3.2 | 11.3 | 0.00 | 0.00 | 0.00 | 74 | 1010.3 |
| 20260508074533 | 14 | 190 | 8.0 | 12.9 | 0.00 | 0.00 | 0.00 | 73 | 1010.3 |
| 20260508074010 | 15 | 190 | 6.4 | 12.9 | 0.00 | 0.00 | 0.00 | 73 | 1010.2 |
| 20260508073529 | 15 | 155 | 8.0 | 12.9 | 0.00 | 0.00 | 0.00 | 73 | 1010.2 |
| 20260508073035 | 14 | 153 | 1.6 | 11.3 | 0.00 | 0.00 | 0.00 | 75 | 1010.2 |
| 20260508072531 | 14 | 190 | 6.4 | 11.3 | 0.00 | 0.00 | 0.00 | 75 | 1010.2 |
| 20260508072026 | 14 | 190 | 3.2 | 11.3 | 0.00 | 0.00 | 0.00 | 76 | 1010.2 |
| 20260508071531 | 14 | 190 | 1.6 | 14.5 | 0.00 | 0.00 | 0.00 | 76 | 1010.2 |
| 20260508071029 | 14 | 190 | 9.7 | 14.5 | 0.00 | 0.00 | 0.00 | 76 | 1010.1 |
| 20260508070534 | 14 | 208 | 8.0 | 12.9 | 0.00 | 0.00 | 0.00 | 77 | 1010.1 |
| 20260508070012 | 14 | 190 | 4.8 | 9.7 | 0.00 | 0.00 | 0.00 | 78 | 1010.1 |
| 20260508065549 | 13 | 190 | 6.4 | 9.7 | 0.00 | 0.00 | 0.00 | 78 | 1010.0 |
| 20260508065026 | 13 | 217 | 3.2 | 9.7 | 0.00 | 0.00 | 0.00 | 79 | 1010.0 |
| 20260508064532 | 13 | 234 | 3.2 | 9.7 | 0.00 | 0.00 | 0.00 | 79 | 1010.0 |
| 20260508064030 | 13 | 209 | 3.2 | 9.7 | 0.00 | 0.00 | 0.00 | 78 | 1010.1 |
| 20260508063533 | 13 | 195 | 4.8 | 9.7 | 0.00 | 0.00 | 0.00 | 78 | 1010.0 |
| 20260508063030 | 13 | 204 | 1.6 | 9.7 | 0.00 | 0.00 | 0.00 | 78 | 1009.9 |
| 20260508062519 | 13 | 234 | 4.8 | 9.7 | 0.00 | 0.00 | 0.00 | 78 | 1009.9 |
| 20260508062024 | 13 | 212 | 1.6 | 8.0 | 0.00 | 0.00 | 0.00 | 78 | 1009.9 |
| 20260508061522 | 13 | 216 | 3.2 | 9.7 | 0.00 | 0.00 | 0.00 | 78 | 1009.8 |
| 20260508060529 | 13 | 207 | 1.6 | 8.0 | 0.00 | 0.00 | 0.00 | 78 | 1009.9 |
| 20260508060033 | 13 | 214 | 3.2 | 8.0 | 0.00 | 0.00 | 0.00 | 78 | 1009.9 |
| 20260508055522 | 13 | 251 | 1.6 | 6.4 | 0.00 | 0.00 | 0.00 | 78 | 1009.9 |
| 20260508055025 | 13 | 209 | 1.6 | 4.8 | 0.00 | 0.00 | 0.00 | 78 | 1009.8 |
| 20260508054532 | 13 | 257 | 0.0 | 11.3 | 0.00 | 0.00 | 0.00 | 78 | 1009.7 |
| 20260508054030 | 13 | 257 | 4.8 | 11.3 | 0.00 | 0.00 | 0.00 | 78 | 1009.8 |
| 20260508053527 | 13 | 253 | 4.8 | 12.9 | 0.00 | 0.00 | 0.00 | 79 | 1009.7 |
| 20260508052528 | 13 | 264 | 8.0 | 12.9 | 0.00 | 0.00 | 0.00 | 79 | 1009.6 |
| 20260508052027 | 13 | 261 | 8.0 | 12.9 | 0.00 | 0.00 | 0.00 | 78 | 1009.5 |
| 20260508051533 | 13 | 272 | 9.7 | 12.9 | 0.00 | 0.00 | 0.00 | 77 | 1009.4 |
| 20260508051018 | 13 | 292 | 8.0 | 11.3 | 0.00 | 0.00 | 0.00 | 75 | 1009.3 |
| 20260508050028 | 13 | 215 | 1.6 | 4.8 | 0.00 | 0.00 | 0.00 | 74 | 1009.1 |
| 20260508045518 | 13 | 220 | 1.6 | 6.4 | 0.00 | 0.00 | 0.00 | 74 | 1009.1 |
| 20260508045044 | 13 | 220 | 1.6 | 6.4 | 0.00 | 0.00 | 0.00 | 74 | 1009.1 |
| 20260508044522 | 13 | 231 | 3.2 | 6.4 | 0.00 | 0.00 | 0.00 | 73 | 1009.0 |
| 20260508044035 | 13 | 237 | 3.2 | 4.8 | 0.00 | 0.00 | 0.00 | 73 | 1009.0 |
| 20260508043514 | 13 | 240 | 1.6 | 6.4 | 0.00 | 0.00 | 0.00 | 73 | 1009.0 |
| 20260508043037 | 13 | 243 | 1.6 | 8.0 | 0.00 | 0.00 | 0.00 | 73 | 1009.0 |
| 20260508042516 | 13 | 220 | 3.2 | 9.7 | 0.00 | 0.00 | 0.00 | 73 | 1009.0 |
| 20260508042015 | 14 | 204 | 3.2 | 9.7 | 0.00 | 0.00 | 0.00 | 73 | 1009.1 |
| 20260508041521 | 14 | 283 | 3.2 | 9.7 | 0.00 | 0.00 | 0.00 | 73 | 1009.2 |
| 20260508041050 | 14 | 203 | 1.6 | 8.0 | 0.00 | 0.00 | 0.00 | 73 | 1009.2 |
| 20260508040528 | 14 | 205 | 1.6 | 6.4 | 0.00 | 0.00 | 0.00 | 73 | 1009.2 |
| 20260508040014 | 14 | 205 | 1.6 | 8.0 | 0.00 | 0.00 | 0.00 | 73 | 1009.3 |
| 20260508035518 | 14 | 156 | 4.8 | 6.4 | 0.00 | 0.00 | 0.00 | 72 | 1009.3 |
| 20260508035015 | 14 | 178 | 3.2 | 8.0 | 0.00 | 0.00 | 0.00 | 72 | 1009.4 |
| 20260508034032 | 14 | 209 | 3.2 | 8.0 | 0.00 | 0.00 | 0.00 | 72 | 1009.5 |
| 20260508033524 | 14 | 162 | 1.6 | 4.8 | 0.00 | 0.00 | 0.00 | 71 | 1009.5 |
| 20260508033022 | 14 | 158 | 3.2 | 6.4 | 0.00 | 0.00 | 0.00 | 71 | 1009.5 |
| 20260508032511 | 14 | 151 | 3.2 | 6.4 | 0.00 | 0.00 | 0.00 | 71 | 1009.5 |
| 20260508032017 | 14 | 190 | 1.6 | 4.8 | 0.00 | 0.00 | 0.00 | 71 | 1009.5 |
| 20260508031544 | 14 | 190 | 1.6 | 4.8 | 0.00 | 0.00 | 0.00 | 71 | 1009.5 |
| 20260508031021 | 14 | 190 | 1.6 | 4.8 | 0.00 | 0.00 | 0.00 | 71 | 1009.7 |
| 20260508030526 | 14 | 190 | 0.0 | 3.2 | 0.00 | 0.00 | 0.00 | 71 | 1009.7 |
| 20260508030024 | 14 | 190 | 1.6 | 4.8 | 0.00 | 0.00 | 0.00 | 71 | 1009.5 |
| 20260508025520 | 13 | 190 | 1.6 | 6.4 | 0.00 | 0.00 | 0.00 | 71 | 1009.5 |
| 20260508025024 | 13 | 190 | 3.2 | 4.8 | 0.00 | 0.00 | 0.00 | 71 | 1009.5 |
| 20260508024523 | 13 | 190 | 3.2 | 6.4 | 0.00 | 0.00 | 0.00 | 71 | 1009.5 |
| 20260508024028 | 13 | 190 | 4.8 | 6.4 | 0.00 | 0.00 | 0.00 | 71 | 1009.5 |
| 20260508023540 | 13 | 190 | 3.2 | 4.8 | 0.00 | 0.00 | 0.00 | 71 | 1009.6 |
| 20260508023022 | 13 | 190 | 1.6 | 3.2 | 0.00 | 0.00 | 0.00 | 71 | 1009.5 |
| 20260508022510 | 13 | 190 | 0.0 | 1.6 | 0.00 | 0.00 | 0.00 | 71 | 1009.5 |
| 20260508022015 | 13 | 190 | 0.0 | 0.0 | 0.00 | 0.00 | 0.00 | 71 | 1009.5 |
| 20260508021518 | 13 | 190 | 0.0 | 0.0 | 0.00 | 0.00 | 0.00 | 70 | 1009.7 |
| 20260508021023 | 13 | 190 | 0.0 | 0.0 | 0.00 | 0.00 | 0.00 | 71 | 1009.7 |
| 20260508020520 | 13 | 190 | 0.0 | 0.0 | 0.00 | 0.00 | 0.00 | 71 | 1009.8 |
| 20260508020011 | 13 | 190 | 0.0 | 0.0 | 0.00 | 0.00 | 0.00 | 71 | 1009.9 |
| 20260508015528 | 13 | 190 | 0.0 | 1.6 | 0.00 | 0.00 | 0.00 | 71 | 1009.9 |
| 20260508015025 | 13 | 190 | 0.0 | 3.2 | 0.00 | 0.00 | 0.00 | 71 | 1010.0 |
| 20260508014523 | 14 | 190 | 1.6 | 3.2 | 0.00 | 0.00 | 0.00 | 71 | 1010.1 |
| 20260508014028 | 14 | 190 | 0.0 | 1.6 | 0.00 | 0.00 | 0.00 | 71 | 1010.1 |
| 20260508013525 | 14 | 190 | 0.0 | 1.6 | 0.00 | 0.00 | 0.00 | 71 | 1010.2 |
| 20260508013010 | 13 | 190 | 0.0 | 0.0 | 0.00 | 0.00 | 0.00 | 71 | 1010.2 |
| 20260508012547 | 14 | 190 | 0.0 | 0.0 | 0.00 | 0.00 | 0.00 | 71 | 1010.1 |
| 20260508012051 | 13 | 190 | 0.0 | 0.0 | 0.00 | 0.00 | 0.00 | 71 | 1010.2 |
| 20260508011554 | 13 | 190 | 0.0 | 0.0 | 0.00 | 0.00 | 0.00 | 71 | 1010.2 |
| 20260508011011 | 13 | 190 | 0.0 | 1.6 | 0.00 | 0.00 | 0.00 | 71 | 1010.5 |
| 20260508010510 | 13 | 190 | 0.0 | 1.6 | 0.00 | 0.00 | 0.00 | 71 | 1010.5 |
| 20260508010016 | 13 | 190 | 0.0 | 1.6 | 0.00 | 0.00 | 0.00 | 71 | 1010.5 |
| 20260508005514 | 13 | 190 | 0.0 | 0.0 | 0.00 | 0.00 | 0.00 | 71 | 1010.6 |
| 20260508005013 | 13 | 190 | 0.0 | 0.0 | 0.00 | 0.00 | 0.00 | 71 | 1010.6 |
| 20260508004026 | 13 | 190 | 0.0 | 1.6 | 0.00 | 0.00 | 0.00 | 71 | 1010.6 |
| 20260508003531 | 13 | 190 | 0.0 | 1.6 | 0.00 | 0.00 | 0.00 | 71 | 1010.7 |
| 20260508003029 | 13 | 190 | 0.0 | 1.6 | 0.00 | 0.00 | 0.00 | 71 | 1010.7 |
| 20260508002518 | 13 | 190 | 0.0 | 3.2 | 0.00 | 0.00 | 0.00 | 71 | 1010.7 |
| 20260508002023 | 13 | 190 | 0.0 | 3.2 | 0.00 | 0.00 | 0.00 | 71 | 1010.7 |
| 20260508001527 | 13 | 190 | 0.0 | 3.2 | 0.00 | 0.00 | 0.00 | 71 | 1010.6 |
| 20260508000519 | 13 | 190 | 0.0 | 3.2 | 0.00 | 0.00 | 0.00 | 71 | 1010.6 |
| 20260508000045 | 13 | 190 | 0.0 | 0.0 | 0.00 | 0.00 | 0.00 | 71 | 1010.7 |
| 20260507235025 | 13 | 190 | 0.0 | 3.2 | 0.00 | 0.00 | 0.00 | 72 | 1010.6 |
| 20260507234523 | 13 | 190 | 0.0 | 0.0 | 0.00 | 0.00 | 0.00 | 72 | 1010.6 |
| 20260507234027 | 13 | 190 | 0.0 | 6.4 | 0.00 | 0.00 | 0.00 | 72 | 1010.6 |
| 20260507233552 | 13 | 190 | 0.0 | 6.4 | 0.00 | 0.00 | 0.00 | 72 | 1010.7 |
| 20260507233030 | 13 | 190 | 3.2 | 6.4 | 0.00 | 0.00 | 0.00 | 72 | 1010.6 |
| 20260507232546 | 13 | 190 | 3.2 | 6.4 | 0.00 | 0.00 | 0.00 | 72 | 1010.7 |
| 20260507232046 | 13 | 190 | 3.2 | 6.4 | 0.00 | 0.00 | 0.00 | 72 | 1010.8 |
| 20260507231523 | 13 | 190 | 0.0 | 4.8 | 0.00 | 0.00 | 0.00 | 72 | 1010.8 |
| 20260507231019 | 13 | 190 | 1.6 | 4.8 | 0.00 | 0.00 | 0.00 | 72 | 1010.8 |
| 20260507230523 | 13 | 190 | 1.6 | 4.8 | 0.00 | 0.00 | 0.00 | 72 | 1011.0 |
| 20260507230021 | 13 | 190 | 0.0 | 1.6 | 0.00 | 0.00 | 0.00 | 72 | 1011.1 |
| 20260507225516 | 13 | 190 | 0.0 | 1.6 | 0.00 | 0.00 | 0.00 | 72 | 1011.1 |
| 20260507225013 | 13 | 190 | 0.0 | 3.2 | 0.00 | 0.00 | 0.00 | 72 | 1011.1 |
| 20260507224512 | 13 | 190 | 0.0 | 3.2 | 0.00 | 0.00 | 0.00 | 71 | 1011.0 |
| 20260507224017 | 13 | 190 | 1.6 | 6.4 | 0.00 | 0.00 | 0.00 | 71 | 1011.1 |
| 20260507223515 | 14 | 190 | 3.2 | 6.4 | 0.00 | 0.00 | 0.00 | 71 | 1011.1 |
| 20260507223041 | 14 | 190 | 1.6 | 3.2 | 0.00 | 0.00 | 0.00 | 71 | 1011.2 |
| 20260507222536 | 14 | 190 | 1.6 | 3.2 | 0.00 | 0.00 | 0.00 | 71 | 1011.2 |
| 20260507222014 | 14 | 190 | 0.0 | 6.4 | 0.00 | 0.00 | 0.00 | 71 | 1011.3 |
| 20260507221540 | 14 | 190 | 3.2 | 6.4 | 0.00 | 0.00 | 0.00 | 70 | 1011.2 |
| 20260507221024 | 14 | 190 | 0.0 | 9.7 | 0.00 | 0.00 | 0.00 | 70 | 1011.3 |
| 20260507220529 | 14 | 190 | 4.8 | 11.3 | 0.00 | 0.00 | 0.00 | 70 | 1011.3 |
| 20260507220026 | 14 | 190 | 4.8 | 12.9 | 0.00 | 0.00 | 0.00 | 70 | 1011.2 |
| 20260507215522 | 14 | 190 | 6.4 | 12.9 | 0.00 | 0.00 | 0.00 | 70 | 1011.2 |
| 20260507215019 | 14 | 190 | 8.0 | 14.5 | 0.00 | 0.00 | 0.00 | 70 | 1011.3 |
| 20260507214020 | 14 | 190 | 6.4 | 17.7 | 0.00 | 0.00 | 0.00 | 70 | 1011.3 |
| 20260507213518 | 14 | 190 | 11.3 | 17.7 | 0.00 | 0.00 | 0.00 | 70 | 1011.3 |
| 20260507213025 | 14 | 190 | 11.3 | 17.7 | 0.00 | 0.00 | 0.00 | 70 | 1011.3 |
| 20260507212519 | 14 | 190 | 11.3 | 20.9 | 0.00 | 0.00 | 0.00 | 69 | 1011.3 |
| 20260507212043 | 14 | 190 | 12.9 | 20.9 | 0.00 | 0.00 | 0.00 | 69 | 1011.3 |
| 20260507211540 | 14 | 190 | 12.9 | 22.5 | 0.00 | 0.00 | 0.00 | 69 | 1011.3 |
| 20260507211023 | 14 | 190 | 12.9 | 22.5 | 0.00 | 0.00 | 0.00 | 69 | 1011.3 |
| 20260507210525 | 14 | 190 | 12.9 | 22.5 | 0.00 | 0.00 | 0.00 | 69 | 1011.3 |
| 20260507210029 | 14 | 190 | 14.5 | 24.1 | 0.00 | 0.00 | 0.00 | 69 | 1011.3 |
| 20260507205548 | 14 | 190 | 16.1 | 24.1 | 0.00 | 0.00 | 0.00 | 69 | 1011.2 |
| 20260507205012 | 14 | 190 | 12.9 | 19.3 | 0.00 | 0.00 | 0.00 | 69 | 1011.4 |
| 20260507204539 | 14 | 190 | 11.3 | 19.3 | 0.00 | 0.00 | 0.00 | 69 | 1011.4 |
| 20260507204016 | 14 | 190 | 9.7 | 22.5 | 0.00 | 0.00 | 0.00 | 69 | 1011.3 |
| 20260507203514 | 14 | 190 | 16.1 | 22.5 | 0.00 | 0.00 | 0.00 | 69 | 1011.3 |
| 20260507203040 | 14 | 190 | 16.1 | 24.1 | 0.00 | 0.00 | 0.00 | 69 | 1011.2 |
| 20260507202514 | 14 | 190 | 16.1 | 24.1 | 0.00 | 0.00 | 0.00 | 69 | 1011.2 |
| 20260507202012 | 14 | 190 | 12.9 | 22.5 | 0.00 | 0.00 | 0.00 | 69 | 1011.1 |
| 20260507201510 | 15 | 190 | 12.9 | 20.9 | 0.00 | 0.00 | 0.00 | 69 | 1011.1 |
| 20260507201021 | 15 | 190 | 11.3 | 24.1 | 0.00 | 0.00 | 0.00 | 68 | 1011.1 |
| 20260507195519 | 15 | 190 | 14.5 | 22.5 | 0.00 | 0.00 | 0.00 | 67 | 1010.9 |
| 20260507195105 | 15 | 190 | 526.3 | 526.3 | 0.00 | 0.00 | 0.00 | 66 | 1010.6 |
| 20260507194030 | 15 | 190 | 14.5 | 24.1 | 0.00 | 0.00 | 0.00 | 65 | 1010.8 |
| 20260507193535 | 15 | 190 | 16.1 | 24.1 | 0.00 | 0.00 | 0.00 | 65 | 1010.8 |
| 20260507193013 | 15 | 190 | 12.9 | 25.7 | 0.00 | 0.00 | 0.00 | 65 | 1010.8 |
| 20260507192530 | 15 | 190 | 17.7 | 25.7 | 0.00 | 0.00 | 0.00 | 65 | 1010.8 |
| 20260507192049 | 15 | 190 | 14.5 | 27.4 | 0.00 | 0.00 | 0.00 | 65 | 1010.7 |
| 20260507191534 | 15 | 190 | 19.3 | 27.4 | 0.00 | 0.00 | 0.00 | 64 | 1010.7 |
| 20260507191010 | 15 | 190 | 14.5 | 24.1 | 0.00 | 0.00 | 0.00 | 64 | 1010.6 |
| 20260507190516 | 15 | 190 | 12.9 | 25.7 | 0.00 | 0.00 | 0.00 | 65 | 1010.6 |
| 20260507190014 | 15 | 190 | 12.9 | 27.4 | 0.00 | 0.00 | 0.00 | 65 | 1010.6 |
| 20260507185532 | 15 | 190 | 17.7 | 27.4 | 0.00 | 0.00 | 0.00 | 64 | 1010.5 |
| 20260507185037 | 15 | 190 | 17.7 | 24.1 | 0.00 | 0.00 | 0.00 | 64 | 1010.5 |
| 20260507184515 | 15 | 190 | 14.5 | 22.5 | 0.00 | 0.00 | 0.00 | 65 | 1010.5 |
| 20260507184014 | 15 | 190 | 14.5 | 24.1 | 0.00 | 0.00 | 0.00 | 66 | 1010.4 |
| 20260507183540 | 15 | 190 | 14.5 | 24.1 | 0.00 | 0.00 | 0.00 | 66 | 1010.3 |
| 20260507183024 | 15 | 190 | 12.9 | 22.5 | 0.00 | 0.00 | 0.00 | 66 | 1010.4 |
| 20260507182520 | 15 | 190 | 14.5 | 25.7 | 0.00 | 0.00 | 0.00 | 65 | 1010.4 |
| 20260507182029 | 15 | 190 | 17.7 | 25.7 | 0.00 | 0.00 | 0.00 | 65 | 1010.4 |
| 20260507181535 | 15 | 190 | 16.1 | 27.4 | 0.00 | 0.00 | 0.00 | 64 | 1010.5 |
| 20260507181013 | 15 | 190 | 16.1 | 27.4 | 0.00 | 0.00 | 0.00 | 64 | 1010.5 |
| 20260507180539 | 15 | 190 | 19.3 | 27.4 | 0.00 | 0.00 | 0.00 | 63 | 1010.4 |
| 20260507180038 | 16 | 190 | 17.7 | 24.1 | 0.00 | 0.00 | 0.00 | 62 | 1010.4 |
| 20260507175520 | 16 | 190 | 16.1 | 25.7 | 0.00 | 0.00 | 0.00 | 62 | 1010.4 |
| 20260507174521 | 16 | 190 | 12.9 | 27.4 | 0.00 | 0.00 | 0.00 | 60 | 1010.2 |
| 20260507174039 | 16 | 190 | 19.3 | 27.4 | 0.00 | 0.00 | 0.00 | 59 | 1010.1 |
| 20260507173523 | 16 | 190 | 17.7 | 27.4 | 0.00 | 0.00 | 0.00 | 58 | 1010.2 |
| 20260507173021 | 16 | 190 | 16.1 | 24.1 | 0.00 | 0.00 | 0.00 | 56 | 1010.2 |
| 20260507172516 | 16 | 190 | 14.5 | 24.1 | 0.00 | 0.00 | 0.00 | 55 | 1010.3 |
| 20260507172014 | 16 | 190 | 12.9 | 24.1 | 0.00 | 0.00 | 0.00 | 55 | 1010.2 |
| 20260507171613 | 16 | 190 | 17.7 | 25.7 | 0.00 | 0.00 | 0.00 | 55 | 1010.2 |
| 20260507171026 | 17 | 190 | 14.5 | 25.7 | 0.00 | 0.00 | 0.00 | 54 | 1010.2 |
| 20260507170524 | 17 | 190 | 19.3 | 25.7 | 0.00 | 0.00 | 0.00 | 54 | 1010.2 |
| 20260507170029 | 17 | 190 | 11.3 | 25.7 | 0.00 | 0.00 | 0.00 | 54 | 1010.1 |
| 20260507165518 | 17 | 345 | 16.1 | 24.1 | 0.00 | 0.00 | 0.00 | 52 | 1010.1 |
| 20260507165023 | 17 | 289 | 9.7 | 24.1 | 0.00 | 0.00 | 0.00 | 50 | 1010.1 |
| 20260507164521 | 17 | 288 | 16.1 | 24.1 | 0.00 | 0.00 | 0.00 | 48 | 1010.1 |
| 20260507164017 | 17 | 190 | 17.7 | 24.1 | 0.00 | 0.00 | 0.00 | 49 | 1010.2 |
| 20260507163628 | 17 | 251 | 16.1 | 25.7 | 0.00 | 0.00 | 0.00 | 48 | 1010.1 |
| 20260507163020 | 17 | 309 | 16.1 | 25.7 | 0.00 | 0.00 | 0.00 | 48 | 1010.1 |
| 20260507162516 | 17 | 321 | 17.7 | 27.4 | 0.00 | 0.00 | 0.00 | 47 | 1010.2 |
| 20260507162014 | 17 | 295 | 16.1 | 27.4 | 0.00 | 0.00 | 0.00 | 49 | 1010.2 |
| 20260507161540 | 17 | 349 | 17.7 | 30.6 | 0.00 | 0.00 | 0.00 | 50 | 1010.1 |
| 20260507161016 | 17 | 190 | 17.7 | 30.6 | 0.00 | 0.00 | 0.00 | 50 | 1010.1 |
| 20260507160043 | 17 | 285 | 16.1 | 33.8 | 0.00 | 0.00 | 0.00 | 49 | 1010.1 |
| 20260507155530 | 17 | 313 | 14.5 | 33.8 | 0.00 | 0.00 | 0.00 | 49 | 1010.0 |
| 20260507155012 | 18 | 281 | 11.3 | 24.1 | 0.00 | 0.00 | 0.00 | 46 | 1010.0 |
| 20260507154510 | 17 | 295 | 12.9 | 29.0 | 0.00 | 0.00 | 0.00 | 46 | 1010.0 |
| 20260507154016 | 18 | 286 | 14.5 | 29.0 | 0.00 | 0.00 | 0.00 | 47 | 1010.1 |
| 20260507153013 | 18 | 298 | 17.7 | 24.1 | 0.00 | 0.00 | 0.00 | 49 | 1010.0 |
| 20260507152526 | 18 | 309 | 12.9 | 29.0 | 0.00 | 0.00 | 0.00 | 50 | 1010.1 |
| 20260507152024 | 18 | 328 | 17.7 | 29.0 | 0.00 | 0.00 | 0.00 | 51 | 1010.1 |
| 20260507151549 | 18 | 343 | 14.5 | 29.0 | 0.00 | 0.00 | 0.00 | 51 | 1010.2 |
| 20260507151033 | 18 | 288 | 14.5 | 25.7 | 0.00 | 0.00 | 0.00 | 51 | 1010.2 |
| 20260507150558 | 18 | 311 | 12.9 | 22.5 | 0.00 | 0.00 | 0.00 | 51 | 1010.1 |
| 20260507145525 | 17 | 190 | 9.7 | 25.7 | 0.00 | 0.00 | 0.00 | 52 | 1010.3 |
| 20260507145030 | 17 | 190 | 16.1 | 25.7 | 0.00 | 0.00 | 0.00 | 51 | 1010.2 |
| 20260507144528 | 17 | 190 | 11.3 | 20.9 | 0.00 | 0.00 | 0.00 | 52 | 1010.2 |
| 20260507144027 | 17 | 190 | 12.9 | 19.3 | 0.00 | 0.00 | 0.00 | 52 | 1010.3 |
| 20260507143532 | 17 | 190 | 12.9 | 19.3 | 0.00 | 0.00 | 0.00 | 52 | 1010.3 |
| 20260507143010 | 18 | 190 | 8.0 | 16.1 | 0.00 | 0.00 | 0.00 | 52 | 1010.4 |
| 20260507142546 | 18 | 190 | 6.4 | 17.7 | 0.00 | 0.00 | 0.00 | 53 | 1010.4 |
| 20260507142023 | 18 | 190 | 11.3 | 19.3 | 0.00 | 0.00 | 0.00 | 52 | 1010.5 |
| 20260507141528 | 18 | 190 | 12.9 | 19.3 | 0.00 | 0.00 | 0.00 | 53 | 1010.6 |
| 20260507141032 | 18 | 190 | 6.4 | 16.1 | 0.00 | 0.00 | 0.00 | 53 | 1010.6 |
| 20260507140515 | 18 | 190 | 9.7 | 20.9 | 0.00 | 0.00 | 0.00 | 53 | 1010.6 |
| 20260507140100 | 18 | 190 | 16.1 | 20.9 | 0.00 | 0.00 | 0.00 | 53 | 1010.6 |
| 20260507135531 | 18 | 349 | 11.3 | 17.7 | 0.00 | 0.00 | 0.00 | 53 | 1010.6 |
| 20260507135036 | 18 | 190 | 11.3 | 17.7 | 0.00 | 0.00 | 0.00 | 53 | 1010.6 |
| 20260507134514 | 18 | 190 | 8.0 | 22.5 | 0.00 | 0.00 | 0.00 | 52 | 1010.7 |
| 20260507134011 | 18 | 275 | 9.7 | 22.5 | 0.00 | 0.00 | 0.00 | 51 | 1010.7 |
| 20260507133510 | 18 | 268 | 8.0 | 16.1 | 0.00 | 0.00 | 0.00 | 51 | 1010.7 |
| 20260507133103 | 18 | 297 | 6.4 | 14.5 | 0.00 | 0.00 | 0.00 | 52 | 1010.7 |
| 20260507132041 | 18 | 311 | 8.0 | 16.1 | 0.00 | 0.00 | 0.00 | 53 | 1010.7 |
| 20260507131021 | 18 | 314 | 8.0 | 17.7 | 0.00 | 0.00 | 0.00 | 54 | 1010.7 |
| 20260507130017 | 18 | 264 | 8.0 | 17.7 | 0.00 | 0.00 | 0.00 | 54 | 1010.8 |
| 20260507125510 | 18 | 334 | 11.3 | 17.7 | 0.00 | 0.00 | 0.00 | 56 | 1010.8 |